AO-07 1 07530U 74089B 16343.44041755 -.00000018 00000-0 16584-3 0 9997 2 07530 101.6020 310.1123 0012051 334.0491 141.9221 12.53624524924954 FO-29 1 24278U 96046B 16342.72114487 -.00000023 00000-0 96480-5 0 9996 2 24278 98.5835 245.2103 0351316 113.2483 250.6051 13.53072486 2988 RS-22 1 27939U 03042A 16343.40656834 .00000174 00000-0 39763-4 0 9996 2 27939 97.9114 128.6346 0014285 110.2753 305.9432 14.66497208705355 AO-73 1 39444U 13066AE 16342.71148144 .00000489 00000-0 67411-4 0 9990 2 39444 97.6589 28.7778 0058980 172.1548 188.0602 14.81275857163268 EO-79 1 40025U 14033R 16343.21076219 .00000456 00000-0 55416-4 0 9997 2 40025 97.9198 248.5262 0011805 207.5149 152.5444 14.88240606134088 XW-2A 1 40903U 15049E 16343.38556538 .00003615 00000-0 99724-4 0 9995 2 40903 97.4374 0.7104 0014008 226.7184 133.2893 15.37683834 68312 XW-2C 1 40906U 15049H 16343.40751385 .00001269 00000-0 73037-4 0 9990 2 40906 97.4540 346.7950 0016192 149.9541 210.2623 15.14116889 67368 LILACSAT-2 1 40908U 15049K 16343.35205530 .00000758 00000-0 46640-4 0 9994 2 40908 97.4607 346.4890 0017181 145.5326 214.7023 15.12863288 67314 UO-11 1 14781U 84021B 16342.73180876 .00000161 00000-0 26169-4 0 9998 2 14781 097.7264 029.2013 0009953 104.9879 255.2437 14.82835558740973 LO-19 1 20442U 90005G 16343.36615143 .00000026 00000-0 25553-4 0 9994 2 20442 98.5590 275.9910 0011749 357.3063 2.8056 14.32841551404296 AO-27 1 22825U 93061C 16342.89385298 .00000029 00000-0 28834-4 0 9996 2 22825 98.7848 300.4220 0008607 163.2721 196.8747 14.29979145210061 IO-26 1 22826U 93061D 16342.89876112 .00000023 00000-0 26188-4 0 9991 2 22826 98.7791 300.5313 0009287 154.7494 205.4144 14.30305996210236 GO-32 1 25397U 98043D 16342.81298359 .00000004 00000-0 20555-4 0 9996 2 25397 098.5883 283.4084 0001381 146.9967 213.1298 14.23610236956344 NO-44 1 26931U 01043C 16342.94952143 -.00000015 00000-0 25912-4 0 9992 2 26931 067.0509 224.6061 0005744 279.2435 080.8017 14.30438406792929 SO-50 1 27607U 02058C 16342.91252918 .00000062 00000-0 29692-4 0 9990 2 27607 064.5556 350.0365 0047225 174.7291 185.4319 14.75258154750766 CO-55 1 27844U 03031E 16343.32331995 .00000093 00000-0 61985-4 0 9999 2 27844 98.6917 349.1043 0009816 173.5756 186.5549 14.22000021697191 CO-57 1 27848U 03031J 16342.91979953 .00000067 00000-0 50690-4 0 9991 2 27848 098.7013 348.8810 0009547 183.4315 176.6798 14.21619898696993 CO-65 1 32785U 08021C 16342.50132974 .00000358 00000-0 44822-4 0 9993 2 32785 97.5854 9.3507 0014688 84.4553 275.8339 14.87747504466397 PRISM 1 33493U 09002B 16343.34240035 .00001432 00000-0 13530-3 0 9996 2 33493 98.1915 211.4431 0015512 357.7782 2.3322 14.95351456427251 TISAT-1 1 36799U 10035E 16342.85313868 .00000795 00000-0 88211-4 0 9996 2 36799 98.0446 96.0000 0011520 231.3238 128.6949 14.90140317347286 ALMASAT-1 1 38078U 12006B 16343.46255976 .00021953 36807-5 26659-3 0 9996 2 38078 69.4451 282.0912 0350036 210.4850 147.5562 15.12635038255857 DUCHIFAT-1 1 40021U 14033M 16343.21105172 .00000659 00000-0 74883-4 0 9998 2 40021 97.9242 250.0485 0012330 205.1574 154.9044 14.89633151134162 NANOSATCBR1 1 40024U 14033Q 16342.65859562 .00000613 00000-0 71182-4 0 9996 2 40024 97.9208 248.6664 0011605 207.2019 152.8592 14.88995648134043 DTUSAT-2 1 40030U 14033W 16343.16794225 .00000435 00000-0 53630-4 0 9994 2 40030 97.9171 247.7826 0011379 201.2905 158.7839 14.87867940134057 ANTELSAT 1 40034U 14033AA 16343.21075459 .00000310 00000-0 54178-4 0 9995 2 40034 97.8818 226.7717 0058893 185.6207 174.4348 14.73559644132801 MET-2/21 1 22782U 93055A 16343.14826271 .00000034 00000-0 17832-4 0 9993 2 22782 82.5475 175.1902 0021368 245.8001 243.1786 13.83794756175275 NOAA-15 1 25338U 98030A 16343.68550274 .00000096 00000-0 40618-4 0 9993 2 25338 98.7837 348.2022 0011214 43.1409 317.1136 14.25767547966186 NOAA-18 1 28654U 05018A 16343.69637039 .00000042 00000-0 23029-4 0 9995 2 28654 99.1942 355.1444 0013637 243.8795 116.1456 14.12317302595271 NOAA-19 1 33591U 09005A 16343.74626682 .00000001 00000-0 45295-6 0 9995 2 33591 99.0645 302.1555 0015001 87.7031 272.6339 14.12132084404264 HUBBLE 1 20580U 90037B 16342.92739584 .00000568 00000-0 24185-4 0 9990 2 20580 028.4686 191.1765 0002593 276.2434 284.4756 15.08615152261287 ISS 1 25544U 98067A 16343.63391904 .00005623 00000-0 85636-4 0 9990 2 25544 51.6413 268.1927 0006087 305.2681 54.8256 15.53833343 32129 CO-58 1 28895U 05043F 16343.12774490 .00000226 00000-0 52309-4 0 9998 2 28895 97.8433 148.4761 0017532 32.2582 327.9690 14.63309926592543 AAUSAT2 1 32788U 08021F 16342.64749595 .00001038 00000-0 10348-3 0 9995 2 32788 97.5833 19.6282 0013230 55.8587 304.3886 14.93583415467080 DO-64 1 32789U 08021G 16343.41137220 .00001819 00000-0 13525-3 0 9995 2 32789 97.5860 39.4845 0013914 37.2721 322.9467 15.04158153468182 CO-66 1 32791U 08021J 16342.66445590 .00000538 00000-0 61158-4 0 9999 2 32791 97.5850 13.2549 0014945 72.3695 287.9154 14.90022185466629 RS-30 1 32953U 08025A 16343.37315699 .00000033 00000-0 16768-3 0 9994 2 32953 82.5026 358.3264 0018550 345.6965 14.3588 12.43073504387719 JUGNU 1 37839U 11058B 16342.71701265 .00000315 00000-0 25752-4 0 9994 2 37839 19.9598 171.4319 0018936 232.8403 222.8718 14.12565120266593 SRMSAT 1 37841U 11058D 16342.01984215 .00000313 00000-0 26934-4 0 9999 2 37841 19.9707 213.3925 0011962 130.5843 8.3397 14.10560291266111 AO-71 1 37854U 11061E 16342.95116360 .00001886 00000-0 11019-3 0 9991 2 37854 101.7014 113.3427 0169812 280.5429 077.6692 15.03233672277747 HRBE 1 37855U 11061F 16343.29400396 .00003152 00000-0 17471-3 0 9991 2 37855 101.7139 111.7998 0183172 284.9204 73.1789 15.02179625278122 HORYU-2 1 38340U 12025D 16342.95728211 .00000336 00000-0 57755-4 0 9994 2 38340 098.3688 334.2448 0011713 174.2298 185.9047 14.75203365234689 RS-40 1 38735U 12041C 16343.38407591 .00000002 00000-0 -55381-4 0 9997 2 38735 82.4770 83.1631 0017598 85.7579 274.5511 12.42574338198001 BEESAT-3 1 39134U 13015E 16343.48267299 .00002080 00000-0 10411-3 0 9994 2 39134 64.8697 121.5859 0020306 304.4728 55.4997 15.16974754200541 BEESAT-2 1 39136U 13015G 16343.77047666 .00004499 00000-0 24199-3 0 9996 2 39136 64.8705 128.8154 0021144 306.0250 53.9428 15.14432159200436 ZACUBE-1 1 39417U 13066B 16342.70666993 .00000409 00000-0 58392-4 0 9996 2 39417 97.6576 27.9599 0059715 174.7023 185.4835 14.80570563164440 TRITON-1 1 39427U 13066M 16342.91931974 .00000252 00000-0 48898-4 0 9990 2 39427 097.6512 004.9878 0113334 240.9753 118.0060 14.67335861162805 GOMX-1 1 39430U 13066Q 16343.28461195 .00000362 00000-0 75596-4 0 9995 2 39430 97.6635 350.9368 0150809 286.0753 72.3888 14.58747306162094 LO-74 1 39440U 13066AA 16342.85585555 .00000359 00000-0 57559-4 0 9990 2 39440 97.6527 18.8327 0080538 199.9622 159.8432 14.75321178163886 SPROUT 1 39770U 14029E 16343.40620305 .00001153 00000-0 13862-3 0 9992 2 39770 97.8735 78.7486 0008274 228.3558 131.6947 14.85856435137800 EO-80 1 40032U 14033Y 16343.20174788 .00000432 00000-0 53436-4 0 9998 2 40032 97.9179 247.8244 0011314 201.3956 158.6788 14.87802983134045 VELOX-1 1 40057U 14034E 16343.32686546 .00000486 00000-0 76757-4 0 9999 2 40057 98.1918 74.7335 0010047 315.2871 44.7523 14.76937794131582 DAURIA DX 1 1 40071U 14037C 16343.39856283 .00000202 00000-0 33478-4 0 9991 2 40071 98.3323 81.0377 0007879 314.4461 45.6107 14.80929510130738 UKUBE-1 1 40074U 14037F 16343.26547281 .00000482 00000-0 65967-4 0 9993 2 40074 98.3385 83.8062 0003945 321.5774 38.5169 14.83310250130878 HODOYOSHI-1 1 40299U 14070B 16343.41238744 .00001096 00000-0 51152-4 0 9990 2 40299 97.4189 62.9576 0014927 45.4809 84.7452 15.21849512115928 CHUBUSAT-1 1 40300U 14070C 16343.44893781 .00001101 00000-0 53401-4 0 9990 2 40300 97.4134 60.7242 0022383 51.3398 5.1633 15.20409408115801 QSAT-EOS 1 40301U 14070D 16343.42483888 .00002219 00000-0 98426-4 0 9999 2 40301 97.4075 60.3082 0029907 48.9421 13.5024 15.22256160115806 FIREBIRD FU3 1 40377U 15003B 16342.90318275 .00003364 00000-0 15042-3 0 9992 2 40377 099.1040 123.1008 0138798 275.6750 082.8664 15.14058150102040 FIREBIRD FU4 1 40378U 15003C 16343.42665522 .00004560 00000-0 20171-3 0 9999 2 40378 99.1041 123.7500 0139001 273.8601 84.6743 15.14082018102136 GRIFEX 1 40379U 15003D 16343.38735181 .00003406 00000-0 15950-3 0 9991 2 40379 99.1049 122.2562 0143921 279.3649 79.1329 15.11956520102040 NO-84 1 40654U 15025D 16343.35159696 .00008735 00000-0 17422-3 0 03078 2 40654 055.0015 007.1122 0196164 146.6090 214.7695 15.29733273050655 NO-83 1 40655U 15025E 16343.30831022 .00012757 00000-0 22025-3 0 03393 2 40655 054.9850 353.8417 0170763 153.2151 207.7941 15.36867269050813 DEORBITSAIL 1 40719U 15032E 16343.21273903 .00000636 00000-0 99977-4 0 9996 2 40719 97.9986 233.1427 0017616 40.5123 319.7394 14.75827212 76153 NUDT-PHONESAT 1 40900U 15049B 16343.44055508 .00004227 00000-0 20924-3 0 9995 2 40900 97.4450 348.2361 0014905 164.3059 195.8640 15.18239604 67508 XW-2D 1 40907U 15049J 16343.40212133 .00001354 00000-0 77540-4 0 9992 2 40907 97.4507 346.6056 0015604 148.1322 212.0857 15.14192225 67360 XW-2F 1 40910U 15049M 16343.43670179 .00001937 00000-0 10734-3 0 9995 2 40910 97.4534 347.0392 0016558 146.7524 213.4752 15.14879821 67261 XW-2B 1 40911U 15049N 16343.40410743 .00001328 00000-0 76218-4 0 9996 2 40911 97.4553 346.8818 0015496 148.3424 211.8743 15.14164336 67260 DCBB 1 40912U 15049P 16343.49683354 .00001760 00000-0 92427-4 0 9996 2 40912 97.4526 348.3836 0016570 140.3584 344.5997 15.16904518 67374 TW-1C 1 40926U 15051B 16343.36449397 .00006908 00000-0 17656-3 0 9996 2 40926 97.2553 18.5509 0013985 135.3072 280.4829 15.39671794 67535 TW-1A 1 40928U 15051D 16343.39147257 .00002885 00000-0 88069-4 0 9998 2 40928 97.2513 16.5805 0013635 155.4949 330.0606 15.34636994 67429 IO-86 1 40931U 15052B 16343.01777607 .00000642 00000-0 41397-6 0 9994 2 40931 5.9985 155.7621 0013170 56.3669 303.7706 14.76501688 64663 GomX-3 1 40949U 98067HA 16292.18357804 .08527750 12374-4 77882-3 0 9992 2 40949 51.6055 106.7696 0006699 286.1344 73.8944 16.38002265 59645 LQSat 1 40958U 15057A 16343.42692199 .00000088 00000-0 21493-4 0 9992 2 40958 97.9988 55.8833 0017639 320.7912 39.2009 14.72928893 63038 AO-85 1 40967U 15058D 16343.55776414 .00000470 00000-0 72039-4 0 03351 2 40967 064.7788 077.0499 0182403 147.6412 213.6010 14.75266243048990 ATHENOXAT-1 1 41168U 15077C 16343.20823765 .00002602 00000-0 11260-3 0 9993 2 41168 14.9854 123.8272 0012307 251.6779 307.2023 15.10851095 54100 ChubuSat-2 1 41338U 16012B 16342.12869888 .00000492 00000-0 32139-4 0 9992 2 41338 31.0033 251.8968 0013985 317.8766 42.0793 14.99589781 44132 ChubuSat-3 1 41339U 16012C 16343.14879278 .00000517 00000-0 33938-4 0 9996 2 41339 31.0123 244.8810 0013854 333.8938 26.1010 14.99807489 44262 Horyu-4 1 41340U 16012D 16342.93247302 .00000746 00000-0 51191-4 0 9996 2 41340 031.0050 244.9319 0014244 338.3768 021.6265 15.00349509044262 OUFTI-1 1 41458U 16025C 16343.33672919 .00002746 00000-0 15251-3 0 9999 2 41458 98.2077 3.8877 0177498 206.3810 152.8303 15.02263234 33912 e-st@r-II 1 41459U 16025D 16343.00902365 .00002878 00000-0 15968-3 0 9996 2 41459 98.2061 3.5161 0178147 207.8912 151.2677 15.02166262 33864 AAUSAT4 1 41460U 16025E 16343.43051553 .00002071 00000-0 11772-3 0 9993 2 41460 98.1950 4.0112 0170626 205.3390 153.9415 15.02696455 33930 MinXSS 1 41474U 98067HU 16343.14829950 .00064366 00000-0 51777-3 0 9990 2 41474 51.6425 259.7143 0004138 109.0426 251.1020 15.70319024 32136 CADRE 1 41475U 98067HV 16343.72557271 .00267465 00000-0 87018-3 0 9991 2 41475 51.6309 249.1639 0007286 144.2639 215.9380 15.89899305 32328 NODES 1 1 41477U 98067HX 16343.18259054 .00032360 00000-0 32007-3 0 9993 2 41477 51.6370 262.1461 0003664 90.5765 269.5650 15.65550760 32019 NODES 2 1 41478U 98067HY 16343.25472002 .00037620 00000-0 37282-3 0 9996 2 41478 51.6368 261.8767 0003585 90.9142 269.2264 15.65426519 32020 LO-87 1 41557U 16033B 16343.14780169 .00002128 00000-0 84811-4 0 9997 2 41557 97.4825 56.5878 0013605 326.4791 33.5585 15.26274059 29286 NuSat2 1 41558U 16033C 16343.42739776 .00002671 00000-0 10612-3 0 9997 2 41558 97.4852 56.8898 0013030 324.2781 35.7584 15.26145983 29320 Lapan A3 1 41603U 16040E 16343.44480461 .00000276 00000-0 16371-4 0 9990 2 41603 97.4896 41.4132 0014762 24.9850 103.4450 15.19216040 25690 Swayam 1 41607U 16040J 16343.39359319 .00002971 00000-0 14110-3 0 9997 2 41607 97.4881 41.3787 0015345 28.9409 331.2674 15.19920284 25618 Pratham 1 41783U 16059A 16343.38733565 .00000096 00000-0 28138-4 0 9992 2 41783 98.1954 40.4600 0034423 40.6949 319.6815 14.62787093 10701 OBJECT B 1 41784U 16059B 16342.89078887 .00000153 00000-0 38975-4 0 9991 2 41784 098.1956 040.0080 0032850 042.1369 318.2350 14.63151563010603 OBJECT C 1 41785U 16059C 16343.43397244 .00000024 00000-0 14143-4 0 9992 2 41785 98.1951 40.5541 0032479 39.6433 320.7135 14.63215683 10687 OBJECT D 1 41786U 16059D 16343.47714440 .00000098 00000-0 26710-4 0 9992 2 41786 98.2222 41.1868 0001186 84.7096 275.4244 14.66311542 10711 OBJECT E 1 41787U 16059E 16343.42169817 .00000123 00000-0 33101-4 0 9991 2 41787 98.1955 40.5714 0031481 39.0756 321.2712 14.63469020 10682 OBJECT F 1 41788U 16059F 16343.13932462 .00000111 00000-0 30568-4 0 9995 2 41788 98.1954 40.3086 0030564 43.0585 317.3026 14.63649007 10643 AlSat 1N 1 41789U 16059G 16343.46443296 .00000170 00000-0 41670-4 0 9995 2 41789 98.1954 40.6745 0029391 35.7007 324.6154 14.63985700 10705 ScatSat 1 41790U 16059H 16342.92224140 .00000029 00000-0 18387-4 0 9994 2 41790 098.0945 034.7736 0011488 022.9918 337.1789 14.50111690010547 OBJECT J 1 41791U 16059J 16343.28350151 .00000055 00000-0 21141-4 0 9998 2 41791 98.2666 40.6242 0043586 47.0466 313.4376 14.60750617 10670 OBJECT K 1 41792U 16059K 16342.91199262 .00000398 00000-0 84643-4 0 9998 2 41792 098.1962 040.1473 0028459 042.2979 318.0411 14.64122145010616 TY-1 1 41844U 16066D 16343.63894163 .00001413 00000-0 62609-4 0 9993 2 41844 97.4069 347.7632 0016091 180.8226 179.3510 15.21518559 4365 CAS-2T 1 41845U 16066E 16343.28937505 -.00000066 00000-0 00000 0 0 9999 2 41845 98.7829 348.3238 0368066 94.6946 269.6389 14.37663271 4068 Pegasus-1 1 41846U 16066F 16343.44587829 -.00000065 00000-0 00000 0 0 9997 2 41846 98.7864 348.4560 0371293 94.7842 269.5876 14.36793977 4087 /EX